Binghamton, NY

5:15 AM EST on December 10, 2019 (GMT -0500)
Binghamton Regional-Link

Weather History for KBGM - May, 2019

Change the Weather History Date:

Thursday, May 16, 2019

  Actual Average Record
Temperature  
Mean Temperature 54 °F 56 °F  
Max Temperature 64 °F 66 °F 86 °F (1962)
Min Temperature 44 °F 46 °F 30 °F (1956)
Degree Days  
Heating Degree Days 11 10  
Month to date heating degree days 205 191  
Since 1 July heating degree days 6995 6990  
Cooling Degree Days 0 1  
Month to date cooling degree days 0 4  
Year to date cooling degree days 0 8  
Growing Degree Days 4 (Base 50)    
Moisture  
Dew Point 43 °F    
Average Humidity 68    
Maximum Humidity 92    
Minimum Humidity 43    
Precipitation  
Precipitation 0.06 in 0.11 in 1.40 in (2014)
Month to date precipitation 3.66 1.74  
Year to date precipitation 15.14 12.92  
Snow  
Snow 0.00 in 0.00 in T in (2016)
Month to date snowfall 0.0 0.1  
Since 1 July snowfall 81.4 83.4  
Snow Depth 0.00 in    
Sea Level Pressure  
Sea Level Pressure 29.87 in    
Wind  
Wind Speed 6 mph (NW)    
Max Wind Speed 21 mph    
Max Gust Speed 28 mph    
Visibility 10 miles    
Events Rain , Thunderstorm    
T = Trace of Precipitation, MM = Missing Value Source: NWS Daily Summary

Daily Weather History Graph

Daily Weather History Graph

Search for Another Location

Airport or City:

Astronomy

May. 16, 2019 Rise Set
Actual Time 5:42 AM EDT 8:19 PM EDT
Civil Twilight 5:10 AM EDT 8:51 PM EDT
Nautical Twilight 4:29 AM EDT 9:31 PM EDT
Astronomical Twilight 3:44 AM EDT 10:17 PM EDT
Moon 5:52 PM EDT (5/16) 4:43 AM EDT (5/16)
Length of Visible Light 15h 41m
Length of Day
14h 36m
Waxing Gibbous, 94% of the Moon is Illuminated
May 16
Waxing Gibbous
May 18
Full
May 26
Last Quarter
Jun 3
New
Jun 10
First Quarter

Hourly Weather History & Observations

Time (EDT) Temp. Windchill Dew Point Humidity Pressure Visibility Wind Dir Wind Speed Gust Speed Precip Events Conditions
12:53 AM 48.0 °F - 42.1 °F 80% 29.84 in 10.0 mi West 5.8 mph - N/A   Clear
1:53 AM 46.9 °F - 42.1 °F 83% 29.83 in 10.0 mi NNE 3.5 mph - N/A   Mostly Cloudy
2:53 AM 48.0 °F - 41.0 °F 77% 29.83 in 10.0 mi NNW 3.5 mph - N/A   Partly Cloudy
3:53 AM 48.0 °F - 39.9 °F 74% 29.83 in 8.0 mi NNW 13.8 mph 27.6 mph 0.02 in Rain Light Rain
4:53 AM 45.0 °F 41.8 °F 41.0 °F 86% 29.85 in 10.0 mi NW 5.8 mph - 0.01 in Rain Light Rain
5:53 AM 46.0 °F 43.9 °F 41.0 °F 83% 29.86 in 10.0 mi WNW 4.6 mph - 0.00 in   Mostly Cloudy
6:24 AM 46.0 °F 43.1 °F 42.1 °F 86% 29.86 in 10.0 mi West 5.8 mph - 0.02 in Rain , Thunderstorm Light Rain
6:45 AM 46.0 °F 43.1 °F 42.1 °F 86% 29.87 in 10.0 mi NW 5.8 mph - 0.03 in   Mostly Cloudy
6:53 AM 45.0 °F 42.6 °F 42.1 °F 90% 29.88 in 10.0 mi WNW 4.6 mph - 0.03 in   Mostly Cloudy
7:53 AM 48.0 °F - 44.1 °F 86% 29.90 in 10.0 mi West 4.6 mph - N/A   Clear
8:07 AM 48.9 °F - 45.0 °F 86% 29.89 in 10.0 mi WNW 5.8 mph - N/A   Clear
8:08 AM 48.9 °F - 45.0 °F 86% 29.89 in 10.0 mi West 4.6 mph - N/A   Clear
8:29 AM 50.0 °F - 45.0 °F 83% 29.89 in 10.0 mi West 6.9 mph - N/A   Mostly Cloudy
8:53 AM 51.1 °F - 46.0 °F 83% 29.91 in 10.0 mi WNW 6.9 mph - N/A   Mostly Cloudy
9:15 AM 50.0 °F - 45.0 °F 83% 29.90 in 10.0 mi West 8.1 mph - N/A   Overcast
9:53 AM 51.1 °F - 46.0 °F 83% 29.91 in 10.0 mi West 9.2 mph - N/A   Mostly Cloudy
10:13 AM 53.1 °F - 46.0 °F 77% 29.89 in 10.0 mi NW 6.9 mph - N/A   Scattered Clouds
10:21 AM 55.0 °F - 46.9 °F 74% 29.89 in 10.0 mi West 8.1 mph - N/A   Scattered Clouds
10:53 AM 55.9 °F - 46.0 °F 69% 29.90 in 10.0 mi WNW 8.1 mph - N/A   Scattered Clouds
11:53 AM 57.9 °F - 43.0 °F 58% 29.90 in 10.0 mi NW 10.4 mph - N/A   Mostly Cloudy
12:53 PM 60.1 °F - 41.0 °F 49% 29.90 in 10.0 mi North 11.5 mph - N/A   Mostly Cloudy
1:53 PM 61.0 °F - 39.0 °F 44% 29.88 in 10.0 mi NW 8.1 mph - N/A   Partly Cloudy
2:53 PM 62.1 °F - 39.9 °F 44% 29.88 in 10.0 mi NW 9.2 mph 17.3 mph N/A   Partly Cloudy
3:53 PM 64.0 °F - 41.0 °F 43% 29.86 in 10.0 mi North - - N/A   Clear
4:53 PM 63.0 °F - 42.1 °F 46% 29.86 in 10.0 mi NNW 8.1 mph - N/A   Clear
5:53 PM 61.0 °F - 43.0 °F 52% 29.86 in 10.0 mi North 9.2 mph - N/A   Clear
6:53 PM 61.0 °F - 44.1 °F 54% 29.85 in 10.0 mi NE 3.5 mph - N/A   Clear
7:53 PM 59.0 °F - 44.1 °F 58% 29.85 in 10.0 mi Calm Calm - N/A   Overcast
8:53 PM 57.9 °F - 42.1 °F 56% 29.86 in 10.0 mi Calm Calm - N/A   Mostly Cloudy
9:53 PM 57.0 °F - 42.1 °F 57% 29.87 in 10.0 mi ENE 3.5 mph - N/A   Overcast
10:53 PM 55.0 °F - 43.0 °F 64% 29.85 in 10.0 mi SSE 4.6 mph - 0.00 in   Overcast
11:53 PM 55.0 °F - 43.0 °F 64% 29.83 in 10.0 mi SSE 5.8 mph - N/A   Overcast